When you browse on this site, cookies collect data to enhance your experience and personalize the content and advertising you see.
Visit our Privacy Policy to learn more. By continuing to use the site, you agree to this use of cookies and data.
  • In Denmark
  • List of Countries
  • For 7 days
  • Water Temperature
  • Weather Map
  • Weather Widgets
  • user-avatar
    Login

    Hourly Weather Elbasan

    Today, 8 April, Wednesday

    Time Temperature Precipitation Wind Pressure Humidity
    00:00 +8°C° 0 mm 3 mps 743 mmHg 54%
    01:00 +8°C° 0 mm 2 mps 743 mmHg 55%
    02:00 +7°C° 0 mm 2 mps 742 mmHg 57%
    03:00 +7°C° 0 mm 2 mps 742 mmHg 59%
    04:00 +7°C° 0 mm 2 mps 742 mmHg 61%
    05:00 +8°C° 0 mm 2 mps 742 mmHg 61%
    06:00 +9°C° 0 mm 2 mps 742 mmHg 60%
    07:00 +10°C° 0 mm 2 mps 742 mmHg 60%
    08:00 +12°C° 0 mm 2 mps 742 mmHg 53%
    09:00 +14°C° 0 mm 2 mps 742 mmHg 46%
    10:00 +16°C° 0 mm 3 mps 742 mmHg 39%
    11:00 +16°C° 0 mm 3 mps 741 mmHg 37%
    12:00 +17°C° 0 mm 3 mps 741 mmHg 35%
    13:00 +18°C° 0 mm 3 mps 741 mmHg 33%
    14:00 +18°C° 0 mm 3 mps 740 mmHg 34%
    15:00 +18°C° 0 mm 3 mps 740 mmHg 36%
    16:00 +18°C° 0 mm 3 mps 739 mmHg 37%
    17:00 +16°C° 0 mm 2 mps 739 mmHg 43%
    18:00 +14°C° 0 mm 2 mps 739 mmHg 50%
    19:00 +12°C° 0 mm 2 mps 739 mmHg 56%
    20:00 +10°C° 0 mm 2 mps 739 mmHg 56%
    21:00 +10°C° 0 mm 2 mps 740 mmHg 57%
    22:00 +9°C° 0 mm 2 mps 740 mmHg 57%
    23:00 +9°C° 0 mm 2 mps 740 mmHg 57%

    Tomorrow, 9 April, Thursday

    Time Temperature Precipitation Wind Pressure Humidity
    00:00 +8°C° 0 mm 2 mps 739 mmHg 57%
    01:00 +8°C° 0 mm 2 mps 739 mmHg 57%
    02:00 +8°C° 0 mm 2 mps 739 mmHg 58%
    03:00 +8°C° 0 mm 2 mps 739 mmHg 58%
    04:00 +7°C° 0 mm 2 mps 739 mmHg 59%
    05:00 +8°C° 0 mm 2 mps 739 mmHg 58%
    06:00 +10°C° 0 mm 2 mps 739 mmHg 58%
    07:00 +12°C° 0 mm 1 mps 739 mmHg 57%
    08:00 +14°C° 0 mm 1 mps 739 mmHg 51%
    09:00 +16°C° 0 mm 1 mps 739 mmHg 45%
    10:00 +18°C° 0 mm 1 mps 739 mmHg 38%
    11:00 +18°C° 0 mm 2 mps 738 mmHg 38%
    12:00 +19°C° 0 mm 2 mps 738 mmHg 38%
    13:00 +20°C° 0 mm 2 mps 738 mmHg 38%
    14:00 +19°C° 0 mm 3 mps 738 mmHg 42%
    15:00 +18°C° 0 mm 3 mps 737 mmHg 46%
    16:00 +18°C° 0 mm 3 mps 737 mmHg 50%
    17:00 +16°C° 0 mm 2 mps 737 mmHg 58%
    18:00 +14°C° 0 mm 1 mps 737 mmHg 67%
    19:00 +11°C° 0 mm 0 mps 737 mmHg 76%
    20:00 +11°C° 0 mm 0 mps 737 mmHg 76%
    21:00 +10°C° 0 mm 0 mps 737 mmHg 76%
    22:00 +10°C° 0 mm 0 mps 738 mmHg 76%
    23:00 +10°C° 0 mm 0 mps 738 mmHg 75%

    Day after tomorrow, 10 April, Friday

    Time Temperature Precipitation Wind Pressure Humidity
    00:00 +10°C° 0 mm 0 mps 737 mmHg 74%
    01:00 +10°C° 0 mm 1 mps 737 mmHg 73%
    02:00 +10°C° 0 mm 1 mps 737 mmHg 72%
    03:00 +10°C° 0 mm 1 mps 737 mmHg 71%
    04:00 +10°C° 0 mm 1 mps 737 mmHg 70%
    05:00 +11°C° 0 mm 1 mps 737 mmHg 67%
    06:00 +12°C° 0 mm 1 mps 737 mmHg 64%
    07:00 +13°C° 0 mm 1 mps 737 mmHg 62%
    08:00 +15°C° 0 mm 1 mps 738 mmHg 56%
    09:00 +18°C° 0 mm 1 mps 738 mmHg 50%
    10:00 +19°C° 0 mm 1 mps 738 mmHg 44%
    11:00 +20°C° 0 mm 1 mps 737 mmHg 43%
    12:00 +20°C° 0 mm 2 mps 737 mmHg 42%
    13:00 +21°C° 0 mm 2 mps 737 mmHg 41%
    14:00 +20°C° 0 mm 2 mps 737 mmHg 45%
    15:00 +20°C° 0 mm 2 mps 737 mmHg 48%
    16:00 +19°C° 0 mm 2 mps 736 mmHg 52%
    17:00 +17°C° 0 mm 2 mps 736 mmHg 60%
    18:00 +15°C° 0 mm 1 mps 736 mmHg 68%
    19:00 +13°C° 0 mm 0 mps 736 mmHg 77%
    20:00 +12°C° 0 mm 0 mps 737 mmHg 76%
    21:00 +13°C° 0 mm 1 mps 737 mmHg 75%
    22:00 +13°C° 0 mm 1 mps 737 mmHg 74%
    23:00 +12°C° 0 mm 1 mps 737 mmHg 74%

    11 April, Saturday

    Time Temperature Precipitation Wind Pressure Humidity
    00:00 +12°C° 0 mm 1 mps 737 mmHg 73%
    01:00 +12°C° 0 mm 1 mps 737 mmHg 72%
    02:00 +12°C° 0 mm 1 mps 738 mmHg 73%
    03:00 +12°C° 0 mm 1 mps 738 mmHg 73%
    04:00 +11°C° 0 mm 1 mps 738 mmHg 73%
    05:00 +12°C° 0 mm 1 mps 738 mmHg 71%
    06:00 +14°C° 0 mm 2 mps 738 mmHg 69%
    07:00 +15°C° 0 mm 2 mps 738 mmHg 67%
    08:00 +16°C° 0 mm 1 mps 738 mmHg 61%
    09:00 +19°C° 0 mm 1 mps 739 mmHg 55%
    10:00 +21°C° 0 mm 1 mps 739 mmHg 49%
    11:00 +21°C° 0 mm 1 mps 739 mmHg 49%
    12:00 +20°C° 0 mm 2 mps 738 mmHg 49%
    13:00 +21°C° 0 mm 2 mps 738 mmHg 49%
    14:00 +20°C° 0.1 mm 2 mps 738 mmHg 53%
    15:00 +19°C° 0.1 mm 2 mps 738 mmHg 57%
    16:00 +19°C° 0.1 mm 2 mps 737 mmHg 62%
    17:00 +18°C° 0.2 mm 1 mps 738 mmHg 67%
    18:00 +16°C° 0.2 mm 1 mps 738 mmHg 73%
    19:00 +13°C° 0.2 mm 0 mps 738 mmHg 78%
    20:00 +13°C° 0 mm 0 mps 738 mmHg 78%
    21:00 +13°C° 0 mm 0 mps 738 mmHg 78%
    22:00 +13°C° 0 mm 0 mps 739 mmHg 78%
    23:00 +13°C° 0 mm 1 mps 739 mmHg 78%

    12 April, Sunday

    Time Temperature Precipitation Wind Pressure Humidity
    00:00 +13°C° 0 mm 1 mps 739 mmHg 78%
    01:00 +13°C° 0 mm 1 mps 738 mmHg 78%
    02:00 +13°C° 0 mm 1 mps 738 mmHg 79%
    03:00 +12°C° 0 mm 1 mps 738 mmHg 79%
    04:00 +12°C° 0 mm 1 mps 738 mmHg 79%
    05:00 +13°C° 0 mm 1 mps 738 mmHg 76%
    06:00 +14°C° 0 mm 1 mps 738 mmHg 73%
    07:00 +15°C° 0 mm 1 mps 738 mmHg 70%
    08:00 +16°C° 0.1 mm 1 mps 738 mmHg 66%
    09:00 +19°C° 0.1 mm 1 mps 738 mmHg 62%
    10:00 +19°C° 0.1 mm 2 mps 738 mmHg 58%
    11:00 +19°C° 0.2 mm 2 mps 738 mmHg 57%
    12:00 +19°C° 0.2 mm 3 mps 738 mmHg 56%
    13:00 +20°C° 0.2 mm 3 mps 738 mmHg 55%
    14:00 +19°C° 0.1 mm 3 mps 738 mmHg 57%
    15:00 +18°C° 0.1 mm 3 mps 737 mmHg 59%
    16:00 +18°C° 0.1 mm 3 mps 737 mmHg 61%
    17:00 +16°C° 0 mm 2 mps 737 mmHg 67%
    18:00 +15°C° 0 mm 1 mps 736 mmHg 73%
    19:00 +12°C° 0 mm 0 mps 736 mmHg 80%
    20:00 +12°C° 0 mm 0 mps 736 mmHg 80%
    21:00 +12°C° 0 mm 0 mps 737 mmHg 80%
    22:00 +12°C° 0 mm 1 mps 737 mmHg 81%
    23:00 +12°C° 0 mm 1 mps 737 mmHg 80%

    13 April, Monday

    Time Temperature Precipitation Wind Pressure Humidity
    00:00 +12°C° 0 mm 1 mps 737 mmHg 79%
    01:00 +11°C° 0 mm 1 mps 736 mmHg 78%
    02:00 +11°C° 0 mm 1 mps 736 mmHg 78%
    03:00 +11°C° 0 mm 1 mps 736 mmHg 78%
    04:00 +11°C° 0 mm 1 mps 736 mmHg 78%
    05:00 +12°C° 0 mm 1 mps 736 mmHg 74%
    06:00 +13°C° 0 mm 1 mps 737 mmHg 69%
    07:00 +14°C° 0 mm 1 mps 737 mmHg 65%
    08:00 +16°C° 0 mm 1 mps 737 mmHg 60%
    09:00 +18°C° 0 mm 1 mps 737 mmHg 54%
    10:00 +18°C° 0 mm 2 mps 736 mmHg 48%
    11:00 +18°C° 0 mm 2 mps 736 mmHg 50%
    12:00 +18°C° 0 mm 3 mps 736 mmHg 52%
    13:00 +19°C° 0 mm 4 mps 736 mmHg 53%
    14:00 +18°C° 0.3 mm 4 mps 736 mmHg 57%
    15:00 +17°C° 0.3 mm 3 mps 735 mmHg 61%
    16:00 +17°C° 0.3 mm 3 mps 735 mmHg 66%
    17:00 +14°C° 0.1 mm 3 mps 735 mmHg 71%
    18:00 +14°C° 0.1 mm 2 mps 735 mmHg 77%
    19:00 +12°C° 0.1 mm 1 mps 735 mmHg 83%
    20:00 +12°C° 0 mm 1 mps 735 mmHg 82%
    21:00 +12°C° 0 mm 1 mps 735 mmHg 81%
    22:00 +11°C° 0 mm 1 mps 735 mmHg 80%
    23:00 +11°C° 0 mm 1 mps 735 mmHg 78%
    Show more